GW6501 Weather Reports


time (UTC)temp
F
wind
direction
speed
knots
gust
knots
rain 1hr
in
rain 24hr
in
rain mn
in
humidity
%
barometer
mb
20260505152703 75 205 1.7 5.2 0.00 0.00 0.00 83 1009.9
20260505140211 72 197 0.9 5.2 0.00 0.00 0.00 87 1009.8
20260505130211 70 188 0.9 4.3 0.00 0.00 0.00 90 1010.0
20260505124503 70 181 0.9 5.2 0.00 0.00 0.00 91 1009.9
20260505123811 70 177 1.7 5.2 0.00 0.00 0.00 91 1009.6
20260505122703 70 185 1.7 5.2 0.00 0.00 0.00 91 1009.5
20260505121804 70 185 1.7 6.1 0.00 0.00 0.00 91 1009.6
20260505120904 69 183 0.9 6.1 0.00 0.00 0.00 92 1009.3
20260505120004 69 182 0.9 2.6 0.00 0.00 0.00 92 1009.4
20260505115403 69 178 0.9 3.5 0.00 0.00 0.00 92 1009.6
20260505114503 69 184 0.9 3.5 0.00 0.00 0.00 92 1009.6
20260505113603 69 196 0.9 5.2 0.00 0.00 0.00 92 1009.6
20260505112704 68 192 0.9 4.3 0.00 0.00 0.00 92 1009.3
20260505111803 68 185 0.9 4.3 0.00 0.00 0.00 92 1009.3
20260505110904 68 175 0.9 2.6 0.00 0.00 0.00 93 1009.3
20260505110211 68 160 0.0 1.7 0.00 0.00 0.00 92 1009.3
20260505101803 68 182 0.9 3.5 0.00 0.00 0.00 92 1009.3
20260505101111 68 186 0.9 3.5 0.00 0.00 0.00 92 1009.3
20260505100004 67 166 0.9 2.6 0.00 0.00 0.00 92 1009.3
20260505095610 67 170 0.9 2.6 0.00 0.00 0.00 92 1009.3
20260505094710 67 166 0.0 2.6 0.00 0.00 0.00 92 1009.3
20260505093603 68 159 0.9 4.3 0.00 0.00 0.00 91 1009.4
20260505092703 68 163 0.9 4.3 0.00 0.00 0.00 91 1009.5
20260505092011 67 167 0.9 2.6 0.00 0.00 0.00 91 1009.8
20260505090903 68 174 0.9 1.7 0.00 0.00 0.00 90 1009.8
20260505090004 68 176 0.9 2.6 0.00 0.00 0.00 90 1009.8
20260505085404 68 180 0.9 2.6 0.00 0.00 0.00 89 1009.6
20260505084504 68 186 0.9 1.7 0.00 0.00 0.00 89 1009.8
20260505083811 68 170 0.0 3.5 0.00 0.00 0.00 88 1009.8
20260505082703 68 189 0.9 3.5 0.00 0.00 0.00 87 1010.0
20260505081803 69 176 0.9 3.5 0.00 0.00 0.00 87 1010.4
20260505080904 69 179 0.9 3.5 0.00 0.00 0.00 86 1010.4
20260505080212 69 188 0.9 3.5 0.00 0.00 0.00 86 1010.1
20260505075404 69 185 0.9 3.5 0.00 0.00 0.00 86 1010.1
20260505074711 69 173 0.9 4.3 0.00 0.00 0.00 86 1010.5
20260505073603 69 183 0.9 4.3 0.00 0.00 0.00 85 1010.3
20260505072703 69 176 0.9 3.5 0.00 0.00 0.00 85 1010.4
20260505071804 69 182 1.7 4.3 0.00 0.00 0.00 84 1010.5
20260505070903 69 169 0.9 3.5 0.00 0.00 0.00 84 1010.6
20260505070004 69 167 0.9 5.2 0.00 0.00 0.00 84 1010.6
20260505065403 68 177 0.9 5.2 0.00 0.00 0.00 85 1010.8
20260505064503 68 178 0.9 2.6 0.00 0.00 0.00 84 1010.8
20260505063603 68 178 0.9 2.6 0.00 0.00 0.00 85 1010.9
20260505062703 68 177 0.9 2.6 0.00 0.00 0.00 84 1011.0
20260505061803 68 167 0.9 2.6 0.00 0.00 0.00 85 1011.0
20260505060903 68 176 0.9 2.6 0.00 0.00 0.00 85 1011.0
20260505060004 68 175 0.0 4.3 0.00 0.00 0.00 85 1011.0
20260505055403 68 166 0.9 4.3 0.00 0.00 0.00 84 1011.0
20260505054504 68 178 0.9 2.6 0.00 0.00 0.00 84 1011.2
20260505053604 68 175 0.9 2.6 0.00 0.00 0.00 84 1011.1
20260505052704 68 173 0.9 3.5 0.00 0.00 0.00 83 1011.2
20260505051803 68 179 0.0 3.5 0.00 0.00 0.00 82 1011.4
20260505050903 69 177 0.9 2.6 0.00 0.00 0.00 82 1011.3
20260505040903 70 183 0.9 4.3 0.00 0.00 0.00 78 1011.4
20260505040211 70 181 0.9 2.6 0.00 0.00 0.00 77 1011.9
20260505035404 70 183 0.9 3.5 0.00 0.00 0.00 77 1011.9
20260505034503 70 182 0.9 3.5 0.00 0.00 0.00 76 1011.8
20260505033604 70 171 0.9 5.2 0.00 0.00 0.00 75 1011.7
20260505032911 71 171 1.7 5.2 0.00 0.00 0.00 75 1011.3
20260505031803 71 191 0.9 4.3 0.00 0.00 0.00 74 1011.5
20260505030904 71 182 0.9 4.3 0.00 0.00 0.00 73 1011.9
20260505030211 71 182 0.9 3.5 0.00 0.00 0.00 73 1011.9
20260505025403 71 180 0.9 3.5 0.00 0.00 0.00 72 1011.9
20260505024504 72 182 1.7 4.3 0.00 0.00 0.00 71 1011.4
20260505023603 72 196 1.7 4.3 0.00 0.00 0.00 71 1011.7
20260505022911 72 191 0.9 4.3 0.00 0.00 0.00 71 1011.5
20260505021803 72 186 0.9 5.2 0.00 0.00 0.00 70 1011.8
20260505020903 72 196 1.7 4.3 0.00 0.00 0.00 70 1011.3
20260505020004 72 184 0.9 3.5 0.00 0.00 0.00 70 1011.1
20260505015611 72 185 0.9 3.5 0.00 0.00 0.00 70 1011.3
20260505014711 72 182 0.9 3.5 0.00 0.00 0.00 70 1011.2
20260505013604 72 198 1.7 4.3 0.00 0.00 0.00 70 1011.1
20260505012704 73 193 0.0 2.6 0.00 0.00 0.00 70 1011.1
20260505012011 73 190 0.9 2.6 0.00 0.00 0.00 69 1011.1
20260505010903 74 190 1.7 3.5 0.00 0.00 0.00 67 1011.1
20260505010004 74 184 0.9 4.3 0.00 0.00 0.00 66 1011.0
20260505005403 74 198 0.9 5.2 0.00 0.00 0.00 66 1011.0
20260505004503 75 206 1.7 6.1 0.00 0.00 0.00 65 1011.0
20260505003603 75 199 0.9 3.5 0.00 0.00 0.00 64 1011.1
20260505002703 75 190 1.7 4.3 0.00 0.00 0.00 64 1011.1
20260505001803 76 192 0.9 4.3 0.00 0.00 0.00 63 1011.2
20260505000904 76 191 0.9 4.3 0.00 0.00 0.00 62 1011.2
20260505000004 76 191 1.7 5.2 0.00 0.00 0.00 62 1011.3
20260504235404 76 190 1.7 5.2 0.00 0.00 0.00 62 1011.2
20260504234503 76 189 1.7 5.2 0.00 0.00 0.00 61 1011.3
20260504233603 77 186 1.7 4.3 0.00 0.00 0.00 60 1011.4
20260504232704 77 213 1.7 5.2 0.00 0.00 0.00 60 1011.3
20260504232011 77 206 1.7 7.0 0.00 0.00 0.00 60 1011.3
20260504230904 78 199 0.9 3.5 0.00 0.00 0.00 58 1011.4
20260504230004 78 211 0.9 3.5 0.00 0.00 0.00 57 1011.9
20260504225404 79 208 0.9 5.2 0.00 0.00 0.00 57 1011.5
20260504224711 79 207 1.7 5.2 0.00 0.00 0.00 55 1011.7
20260504223603 80 192 0.9 4.3 0.00 0.00 0.00 53 1011.9
20260504222703 79 222 1.7 7.0 0.00 0.00 0.00 54 1011.7
20260504222011 79 211 0.9 3.5 0.00 0.00 0.00 54 1011.8
20260504221111 78 200 0.9 6.1 0.00 0.00 0.00 53 1012.1
20260504220004 79 217 1.7 6.1 0.00 0.00 0.00 52 1012.1
20260504215404 80 203 1.7 4.3 0.00 0.00 0.00 52 1012.1
20260504214711 80 194 1.7 3.5 0.00 0.00 0.00 51 1012.0
20260504213603 79 214 2.6 5.2 0.00 0.00 0.00 50 1012.3
20260504212703 80 191 2.6 8.7 0.00 0.00 0.00 49 1012.4
20260504211803 79 177 1.7 5.2 0.00 0.00 0.00 49 1012.4
20260504210903 81 212 1.7 5.2 0.00 0.00 0.00 47 1012.7
20260504210004 80 229 1.7 5.2 0.00 0.00 0.00 48 1013.0
20260504205403 80 213 2.6 6.1 0.00 0.00 0.00 47 1013.0
20260504204503 79 221 2.6 7.0 0.00 0.00 0.00 48 1013.0
20260504203603 80 228 2.6 6.1 0.00 0.00 0.00 48 1013.3
20260504202703 80 214 2.6 7.0 0.00 0.00 0.00 48 1013.6
20260504201803 80 220 2.6 6.1 0.00 0.00 0.00 46 1013.6
20260504200904 81 207 1.7 6.1 0.00 0.00 0.00 43 1013.7
20260504200004 79 222 2.6 7.8 0.00 0.00 0.00 49 1013.8
20260504195404 79 219 2.6 7.8 0.00 0.00 0.00 45 1013.8
20260504194504 79 218 2.6 6.1 0.00 0.00 0.00 47 1014.0
20260504193603 79 219 1.7 7.0 0.00 0.00 0.00 43 1014.1
20260504192703 79 209 1.7 5.2 0.00 0.00 0.00 47 1014.2
20260504191803 78 207 2.6 7.0 0.00 0.00 0.00 47 1014.4
20260504190904 78 215 1.7 4.3 0.00 0.00 0.00 45 1014.5
20260504190004 79 218 1.7 5.2 0.00 0.00 0.00 46 1014.5
20260504185404 78 213 1.7 6.1 0.00 0.00 0.00 45 1014.7
20260504184711 77 203 2.6 7.8 0.00 0.00 0.00 44 1014.9
20260504183604 77 230 2.6 7.0 0.00 0.00 0.00 45 1015.0
20260504182703 78 205 1.7 3.5 0.00 0.00 0.00 44 1014.9
20260504182011 77 184 1.7 5.2 0.00 0.00 0.00 44 1015.2
20260504181111 77 211 1.7 5.2 0.00 0.00 0.00 44 1015.2
20260504180004 76 210 1.7 5.2 0.00 0.00 0.00 45 1015.6
20260504175611 77 205 1.7 5.2 0.00 0.00 0.00 44 1015.7
20260504174711 77 200 1.7 4.3 0.00 0.00 0.00 41 1015.7
20260504173603 76 216 1.7 6.1 0.00 0.00 0.00 42 1016.0
20260504172703 76 206 2.6 6.1 0.00 0.00 0.00 42 1016.1
20260504171804 75 209 2.6 5.2 0.00 0.00 0.00 41 1016.0
20260504171111 76 212 1.7 5.2 0.00 0.00 0.00 41 1016.3
20260504170211 75 196 1.7 5.2 0.00 0.00 0.00 44 1016.5